Weather History for Fort Dodge, IA

Change the Weather History Date:

Monday, January 21, 2013

  Actual Average Record
Temperature  
Mean Temperature -1 °F -  
Max Temperature 5 °F 29 °F 50 °F (1967)
Min Temperature -7 °F 9 °F -27 °F (1970)
Degree Days  
Heating Degree Days 66    
Moisture  
Dew Point -9 °F    
Average Humidity 66    
Maximum Humidity 72    
Minimum Humidity 55    
Precipitation  
Precipitation 0.00 in - - ()
Sea Level Pressure  
Sea Level Pressure 30.34 in    
Wind  
Wind Speed 10 mph (WNW)    
Max Wind Speed 15 mph    
Max Gust Speed 22 mph    
Visibility 10 miles    
Events      
Averages and records for this station are not official NWS values.
T = Trace of Precipitation, MM = Missing Value Source: NWS Daily Summary

Daily Weather History Graph

Daily Weather History Graph

Search for Another Location

Airport:

Trip Planner

Search our weather history database for the weather conditions in past years. The results will help you decide how hot, cold, wet, or windy it might be!

Date:

Astronomy

Jan. 21, 2013 Rise Set
Actual Time 7:40 AM CST 5:16 PM CST
Civil Twilight 7:09 AM CST 5:47 PM CST
Nautical Twilight 6:35 AM CST 6:21 PM CST
Astronomical Twilight 6:01 AM CST 6:55 PM CST
Moon 12:56 PM CST (1/21) 3:09 AM CST (1/21)
Length of Visible Light 10h 37m
Length of Day
9h 36m
Waxing Gibbous, 75% of the Moon is Illuminated
Jan 21
Waxing Gibbous
Jan 26
Full
Feb 3
Last Quarter
Feb 10
New
Feb 17
First Quarter

Hourly Weather History & Observations

Time (CST) Temp. Windchill Dew Point Humidity Pressure Visibility Wind Dir Wind Speed Gust Speed Precip Events Conditions
12:15 AM 3.2 °F -11.3 °F -5.8 °F 66% 30.31 in 10.0 mi WNW 9.2 mph - N/A   Clear
12:35 AM 1.4 °F -16.1 °F -5.8 °F 72% 30.31 in 10.0 mi NW 12.7 mph 19.6 mph N/A   Clear
12:55 AM 3.2 °F -13.1 °F -5.8 °F 66% 30.31 in 10.0 mi WNW 11.5 mph 19.6 mph N/A   Clear
1:15 AM 3.2 °F -12.2 °F -5.8 °F 66% 30.31 in 10.0 mi WNW 10.4 mph 17.3 mph N/A   Clear
1:35 AM 3.2 °F -11.3 °F -4.0 °F 72% 30.31 in 10.0 mi WNW 9.2 mph - N/A   Clear
1:55 AM 3.2 °F -11.3 °F -5.8 °F 66% 30.31 in 10.0 mi WNW 9.2 mph - N/A   Clear
2:15 AM 1.4 °F -14.5 °F -5.8 °F 72% 30.32 in 10.0 mi WNW 10.4 mph 17.3 mph N/A   Clear
2:35 AM 1.4 °F -16.9 °F -5.8 °F 72% 30.33 in 10.0 mi WNW 13.8 mph 17.3 mph N/A   Clear
2:55 AM 1.4 °F -16.1 °F -5.8 °F 72% 30.33 in 10.0 mi WNW 12.7 mph 18.4 mph N/A   Clear
3:15 AM 1.4 °F -17.6 °F -5.8 °F 72% 30.34 in 9.0 mi NW 15.0 mph 20.7 mph N/A   Scattered Clouds
3:35 AM -0.4 °F -15.7 °F -11.2 °F 60% 30.34 in 10.0 mi NW 9.2 mph 19.6 mph N/A   Partly Cloudy
3:55 AM -0.4 °F -13.4 °F -11.2 °F 60% 30.34 in 10.0 mi NW 6.9 mph 17.3 mph N/A   Clear
4:15 AM -2.2 °F -18.0 °F -13.0 °F 60% 30.34 in 10.0 mi NW 9.2 mph 18.4 mph N/A   Clear
4:55 AM -2.2 °F -19.9 °F -14.8 °F 55% 30.35 in 10.0 mi NW 11.5 mph 18.4 mph N/A   Clear
5:15 AM -4.0 °F -19.0 °F -14.8 °F 60% 30.36 in 10.0 mi NW 8.1 mph 21.9 mph N/A   Clear
5:35 AM -5.8 °F -22.4 °F -16.6 °F 60% 30.35 in 10.0 mi NW 9.2 mph 20.7 mph N/A   Clear
5:55 AM -5.8 °F -22.4 °F -18.4 °F 55% 30.35 in 10.0 mi NNW 9.2 mph 18.4 mph N/A   Clear
6:15 AM -5.8 °F -21.2 °F -16.6 °F 60% 30.36 in 10.0 mi NW 8.1 mph - N/A   Clear
6:35 AM -7.6 °F -23.4 °F -16.6 °F 65% 30.36 in 10.0 mi NW 8.1 mph - N/A   Clear
6:55 AM -7.6 °F -23.4 °F -14.8 °F 71% 30.36 in 10.0 mi NW 8.1 mph - N/A   Clear
7:15 AM -7.6 °F -24.6 °F -16.6 °F 65% 30.37 in 10.0 mi WNW 9.2 mph - N/A   Clear
7:35 AM -7.6 °F -25.7 °F -16.6 °F 65% 30.36 in 10.0 mi WNW 10.4 mph 16.1 mph N/A   Clear
7:55 AM -7.6 °F -23.4 °F -16.6 °F 65% 30.37 in 10.0 mi WNW 8.1 mph - N/A   Clear
8:15 AM -7.6 °F -23.4 °F -16.6 °F 65% 30.37 in 10.0 mi WNW 8.1 mph 16.1 mph N/A   Clear
8:35 AM -5.8 °F -21.2 °F -14.8 °F 65% 30.37 in 10.0 mi WNW 8.1 mph - N/A   Clear
8:55 AM -5.8 °F -22.4 °F -14.8 °F 65% 30.38 in 10.0 mi WNW 9.2 mph - N/A   Clear
9:15 AM -5.8 °F -22.4 °F -13.0 °F 71% 30.39 in 10.0 mi WNW 9.2 mph - N/A   Clear
9:35 AM -4.0 °F -21.2 °F -13.0 °F 65% 30.40 in 10.0 mi WNW 10.4 mph - N/A   Clear
9:55 AM -2.2 °F -18.0 °F -13.0 °F 60% 30.40 in 10.0 mi WNW 9.2 mph 19.6 mph N/A   Clear
10:15 AM -2.2 °F -20.7 °F -11.2 °F 66% 30.40 in 10.0 mi WNW 12.7 mph 19.6 mph N/A   Clear
10:35 AM -2.2 °F -18.9 °F -11.2 °F 66% 30.40 in 10.0 mi WNW 10.4 mph 17.3 mph N/A   Clear
10:55 AM -0.4 °F -16.7 °F -11.2 °F 60% 30.40 in 10.0 mi WNW 10.4 mph - N/A   Clear
11:15 AM -0.4 °F -17.6 °F -11.2 °F 60% 30.39 in 10.0 mi WNW 11.5 mph 19.6 mph N/A   Clear
11:35 AM -0.4 °F -19.2 °F -9.4 °F 66% 30.38 in 10.0 mi WNW 13.8 mph 18.4 mph N/A   Clear
11:55 AM 1.4 °F -15.3 °F -7.6 °F 66% 30.37 in 10.0 mi WNW 11.5 mph 18.4 mph N/A   Clear
12:15 PM 1.4 °F -14.5 °F -7.6 °F 66% 30.36 in 10.0 mi WNW 10.4 mph 18.4 mph N/A   Clear
12:35 PM 1.4 °F -14.5 °F -7.6 °F 66% 30.35 in 10.0 mi WNW 10.4 mph 17.3 mph N/A   Clear
12:55 PM 3.2 °F -12.2 °F -7.6 °F 61% 30.34 in 10.0 mi NW 10.4 mph 17.3 mph N/A   Clear
1:15 PM 3.2 °F -13.9 °F -5.8 °F 66% 30.33 in 10.0 mi NW 12.7 mph 17.3 mph N/A   Clear
1:35 PM 5.0 °F -10.8 °F -5.8 °F 61% 30.33 in 10.0 mi WNW 11.5 mph 18.4 mph N/A   Clear
1:55 PM 3.2 °F -13.1 °F -5.8 °F 66% 30.33 in 10.0 mi WNW 11.5 mph - N/A   Clear
2:15 PM 3.2 °F -13.1 °F -5.8 °F 66% 30.32 in 10.0 mi WNW 11.5 mph 20.7 mph N/A   Clear
2:35 PM 3.2 °F -11.3 °F -5.8 °F 66% 30.32 in 10.0 mi WNW 9.2 mph - N/A   Clear
2:55 PM 3.2 °F -13.9 °F -5.8 °F 66% 30.33 in 10.0 mi WNW 12.7 mph 20.7 mph N/A   Clear
3:15 PM 3.2 °F -15.3 °F -7.6 °F 61% 30.32 in 10.0 mi WNW 15.0 mph 20.7 mph N/A   Clear
3:35 PM 3.2 °F -12.2 °F -5.8 °F 66% 30.32 in 10.0 mi West 10.4 mph 19.6 mph N/A   Clear
3:55 PM 3.2 °F -11.3 °F -5.8 °F 66% 30.32 in 10.0 mi West 9.2 mph 16.1 mph N/A   Clear
4:15 PM 3.2 °F -13.1 °F -7.6 °F 61% 30.32 in 10.0 mi WNW 11.5 mph 20.7 mph N/A   Clear
4:35 PM 3.2 °F -13.9 °F -7.6 °F 61% 30.32 in 10.0 mi West 12.7 mph 19.6 mph N/A   Clear
4:55 PM 3.2 °F -13.9 °F -7.6 °F 61% 30.31 in 10.0 mi West 12.7 mph 17.3 mph N/A   Clear
5:15 PM 1.4 °F -14.5 °F -7.6 °F 66% 30.31 in 10.0 mi WNW 10.4 mph 16.1 mph N/A   Clear
5:35 PM 1.4 °F -13.5 °F -7.6 °F 66% 30.32 in 10.0 mi West 9.2 mph 17.3 mph N/A   Clear
5:55 PM 1.4 °F -13.5 °F -7.6 °F 66% 30.32 in 10.0 mi West 9.2 mph - N/A   Clear
6:15 PM 1.4 °F -14.5 °F -9.4 °F 61% 30.32 in 10.0 mi West 10.4 mph - N/A   Clear
6:35 PM 1.4 °F -11.3 °F -7.6 °F 66% 30.32 in 10.0 mi West 6.9 mph - N/A   Clear
6:55 PM -0.4 °F -12.0 °F -9.4 °F 66% 30.32 in 10.0 mi West 5.8 mph - N/A   Clear
7:15 PM -0.4 °F -13.4 °F -9.4 °F 66% 30.32 in 10.0 mi West 6.9 mph - N/A   Clear
7:35 PM -0.4 °F -14.7 °F -9.4 °F 66% 30.33 in 10.0 mi West 8.1 mph - N/A   Clear
7:55 PM -0.4 °F -14.7 °F -7.6 °F 72% 30.33 in 10.0 mi West 8.1 mph - N/A   Clear
8:15 PM -0.4 °F -14.7 °F -7.6 °F 72% 30.33 in 10.0 mi West 8.1 mph - N/A   Clear
8:35 PM -0.4 °F -13.4 °F -9.4 °F 66% 30.33 in 10.0 mi WNW 6.9 mph - N/A   Clear
8:55 PM -0.4 °F -14.7 °F -9.4 °F 66% 30.33 in 10.0 mi West 8.1 mph - N/A   Clear
9:15 PM -0.4 °F -15.7 °F -7.6 °F 72% 30.33 in 10.0 mi West 9.2 mph - N/A   Clear
9:35 PM -0.4 °F -15.7 °F -7.6 °F 72% 30.33 in 10.0 mi West 9.2 mph - N/A   Clear
9:55 PM -0.4 °F -13.4 °F -7.6 °F 72% 30.34 in 10.0 mi West 6.9 mph - N/A   Clear
10:35 PM -0.4 °F -14.7 °F -7.6 °F 72% 30.33 in 10.0 mi West 8.1 mph - N/A   Clear
10:55 PM -0.4 °F -15.7 °F -7.6 °F 72% 30.34 in 10.0 mi WNW 9.2 mph - N/A   Clear
11:15 PM -0.4 °F -13.4 °F -7.6 °F 72% 30.34 in 10.0 mi NW 6.9 mph - N/A   Clear
11:35 PM -0.4 °F -14.7 °F -7.6 °F 72% 30.34 in 10.0 mi NW 8.1 mph - N/A   Clear
11:55 PM -0.4 °F -13.4 °F -7.6 °F 72% 30.33 in 10.0 mi WNW 6.9 mph - N/A   Clear